Location: Passo di Treia
(43.2833°N, 13.3333°E)
Time: 03:15:15
(UTC+00:00)

Radarsat Rocket - Pass Details

Date: 09 December 2019
Orbit: 933 x 1492 km, 100.6° (Epoch: 22 January)

Event Time Altitude Azimuth Distance (km) Brightness Sun altitude
Rises 16:01:54 0° 166° (SSE) 3,847 7.3 -5.8°
Reaches altitude 10° 16:04:31 10° 168° (SSE) 2,830 6.6 -6.2°
Maximum altitude 16:10:46 77° 254° (WSW) 999 4.3 -7.2°
Drops below altitude 10° 16:16:38 10° 341° (NNW) 2,659 6.3 -8.2°
Sets 16:19:01 0° 343° (NNW) 3,600 6.9 -8.6°
